Location: Unspecified
(51.6250°N, 0.8230°E)
Time: 22:25:41
(UTC+00:00)

Intercosmos 25 - Pass Details

Date: 29 January 2021
Orbit: 438 x 2877 km, 82.6° (Epoch: 25 February)

Event Time Altitude Azimuth Distance (km) Brightness Sun altitude
Rises 17:29:57 0° 240° (WSW) 5,870 10.6 -7.8°
Reaches altitude 10° 17:35:18 10° 254° (WSW) 4,428 9.6 -8.6°
Maximum altitude 17:42:52 21° 299° (WNW) 2,907 7.6 -9.7°
Drops below altitude 10° 17:48:23 10° 346° (NNW) 3,085 7.1 -10.6°
Sets 17:51:21 0° 4° (N) 3,706 7.3 -11.0°
